GW3823 Weather Reports


Display with metric or nautical units.
time (UTC)temp
F
wind
direction
speed
MPH
gust
MPH
rain 1hr
in
rain 24hr
in
rain mn
in
humidity
%
barometer
mb
20260903183804 74 168 8.0 17.0 0.00 0.12 0.00 31 1013.2
20260903183305 74 149 12.0 17.0 0.00 0.12 0.00 29 1013.1
20260903182306 74 190 3.0 12.0 0.00 0.12 0.00 31 1013.3
20260903181304 74 206 5.0 8.0 0.00 0.12 0.00 33 1013.5
20260903180804 74 209 3.0 8.0 0.00 0.12 0.00 34 1013.5
20260903180304 74 196 5.0 8.0 0.00 0.12 0.00 33 1013.5
20260903175804 70 175 5.0 14.0 0.00 0.12 0.00 36 1013.5
20260903175306 71 231 3.0 7.0 0.00 0.12 0.00 35 1022.5
20260903174804 70 232 4.0 12.0 0.00 0.12 0.00 36 1013.5
20260903174304 70 199 4.0 10.0 0.00 0.12 0.00 34 1023.2
20260903173804 70 168 6.0 12.0 0.00 0.12 0.00 36 1013.7
20260903172804 70 168 2.0 15.0 0.00 0.12 0.00 33 1013.7
20260903172306 70 161 5.0 13.0 0.00 0.12 0.00 37 1018.4
20260903171805 70 171 3.0 14.0 0.00 0.12 0.00 37 1013.5
20260903171305 70 64 5.0 17.0 0.00 0.12 0.00 35 1017.7
20260903170804 70 185 3.0 13.0 0.00 0.12 0.00 40 1013.8
20260903170305 70 154 9.0 13.0 0.00 0.12 0.00 40 1021.9
20260903165805 67 178 5.0 14.0 0.00 0.12 0.00 39 1013.7
20260903165305 66 211 6.0 14.0 0.00 0.12 0.00 61 1022.4
20260903164805 67 158 6.0 15.0 0.00 0.12 0.00 40 1013.8
20260903164304 66 174 5.0 12.0 0.00 0.12 0.00 62 1023.0
20260903163805 66 134 3.0 14.0 0.00 0.12 0.00 41 1013.7
20260903163304 66 151 7.0 13.0 0.00 0.12 0.00 51 1018.3
20260903162805 66 146 7.0 12.0 0.00 0.12 0.00 41 1013.7
20260903161805 66 135 7.0 13.0 0.00 0.12 0.00 42 1013.6
20260903161305 65 166 4.0 10.0 0.00 0.12 0.00 46 1013.7
20260903160805 64 141 5.0 12.0 0.00 0.12 0.00 61 1021.7
20260903155804 62 140 6.0 9.0 0.00 0.12 0.00 65 1021.2
20260903155306 61 151 4.0 12.0 0.00 0.12 0.00 53 1013.8
20260903154804 60 150 6.0 12.0 0.00 0.12 0.00 70 1023.7
20260903154304 60 202 6.0 13.0 0.00 0.12 0.00 56 1013.8
20260903153804 56 140 8.0 12.0 0.00 0.12 0.00 71 1024.4
20260903153305 58 141 5.0 12.0 0.00 0.12 0.00 59 1013.6
20260903152804 57 163 6.0 13.0 0.00 0.12 0.00 59 1013.8
20260903152306 57 167 5.0 13.0 0.00 0.12 0.00 60 1013.7
20260903151803 56 158 4.0 9.0 0.00 0.12 0.00 60 1013.8
20260903151304 55 164 5.0 9.0 0.00 0.12 0.00 63 1013.9
20260903150804 53 142 5.0 9.0 0.00 0.12 0.00 63 1014.0
20260903145805 52 151 5.0 9.0 0.00 0.12 0.00 66 1014.1
20260903145306 51 140 4.0 7.0 0.00 0.12 0.00 68 1014.2
20260903144804 50 175 2.0 6.0 0.00 0.12 0.00 69 1014.2
20260903144304 50 167 3.0 8.0 0.00 0.12 0.00 70 1014.2
20260903143804 50 158 5.0 8.0 0.00 0.12 0.00 71 1014.2
20260903143305 50 151 3.0 7.0 0.00 0.12 0.00 85 1014.0
20260903142306 49 114 1.0 6.0 0.00 0.12 0.00 74 1014.2
20260903141804 49 192 2.0 3.0 0.00 0.12 0.00 74 1014.3
20260903141304 48 155 3.0 3.0 0.00 0.12 0.00 76 1014.3
20260903140804 48 159 2.0 3.0 0.00 0.12 0.00 78 1023.4
20260903135306 46 88 1.0 5.0 0.00 0.12 0.00 90 1014.3
20260903134804 46 170 2.0 5.0 0.00 0.12 0.00 81 1014.4
20260903134304 45 132 1.0 5.0 0.00 0.12 0.00 91 1014.3
20260903133803 44 287 0.0 1.0 0.00 0.12 0.00 84 1014.2
20260903133304 45 287 0.0 2.0 0.00 0.12 0.00 85 1014.1
20260903132306 44 128 1.0 2.0 0.00 0.12 0.00 85 1023.2
20260903131804 44 208 0.0 1.0 0.00 0.12 0.00 84 1014.2
20260903131304 44 208 0.0 1.0 0.00 0.12 0.00 85 1021.9
20260903130804 44 208 0.0 1.0 0.00 0.12 0.00 84 1014.0
20260903130304 44 103 0.0 0.0 0.00 0.12 0.00 82 1022.1
20260903125804 44 103 0.0 0.0 0.00 0.12 0.00 87 1013.9
20260903124804 44 103 0.0 0.0 0.00 0.12 0.00 86 1013.8
20260903124304 44 103 0.0 1.0 0.00 0.12 0.00 82 1013.8
20260903122804 48 53 5.0 6.0 0.00 0.12 0.00 92 1013.7
20260903122305 48 53 5.0 6.0 0.00 0.12 0.00 92 1018.5
20260903121804 48 53 5.0 6.0 0.00 0.12 0.00 92 1013.5
20260903121304 48 53 5.0 6.0 0.00 0.12 0.00 92 1013.5
20260903120304 45 53 5.0 6.0 0.00 0.12 0.00 90 1013.6
20260903115803 45 53 5.0 6.0 0.00 0.12 0.00 79 1013.6
20260903115306 45 53 5.0 6.0 0.00 0.12 0.00 90 1013.5
20260903114804 45 53 5.0 6.0 0.00 0.12 0.00 79 1013.6
20260903114303 45 53 5.0 6.0 0.00 0.12 0.00 79 1013.6
20260903113804 46 53 5.0 6.0 0.00 0.12 0.00 79 1019.1
20260903113304 45 53 5.0 6.0 0.00 0.12 0.00 86 1013.5
20260903112804 45 53 5.0 6.0 0.00 0.12 0.00 79 1022.9
20260903112305 45 53 5.0 6.0 0.00 0.12 0.00 79 1013.3
20260903111803 45 53 5.0 6.0 0.00 0.12 0.00 79 1013.6
20260903111304 45 53 5.0 6.0 0.00 0.12 0.00 79 1013.5
20260903110804 49 31 5.0 5.0 0.00 0.12 0.00 92 1013.5
20260903110304 49 31 5.0 5.0 0.00 0.12 0.00 92 1013.5
20260903105804 51 31 5.0 5.0 0.00 0.12 0.00 89 1013.7
20260903105306 51 31 5.0 5.0 0.00 0.12 0.00 89 1022.1
20260903104806 46 31 5.0 5.0 0.00 0.12 0.00 78 1013.6
20260903104304 46 31 5.0 5.0 0.00 0.12 0.00 78 1018.1
20260903103804 46 31 5.0 5.0 0.00 0.12 0.00 78 1013.3
20260903103303 46 31 5.0 5.0 0.00 0.12 0.00 78 1021.5
20260903102306 46 31 5.0 5.0 0.00 0.12 0.00 78 1022.2
20260903101804 46 31 5.0 5.0 0.00 0.12 0.00 78 1013.4
20260903101304 46 31 5.0 5.0 0.00 0.12 0.00 88 1013.7
20260903100804 46 31 5.0 5.0 0.00 0.12 0.00 78 1013.8
20260903100304 46 31 5.0 5.0 0.00 0.12 0.00 89 1018.1
20260903095803 46 31 5.0 5.0 0.00 0.12 0.00 79 1013.6
20260903094803 46 51 3.0 7.0 0.00 0.12 0.00 79 1013.7
20260903094303 47 42 5.0 7.0 0.00 0.12 0.00 76 1013.6
20260903083804 48 28 4.0 7.0 0.00 0.12 0.00 76 1013.4
20260903083303 49 61 5.0 7.0 0.00 0.12 0.00 76 1013.7
20260903082804 48 71 5.0 10.0 0.00 0.12 0.00 75 1013.8
20260903082306 49 59 7.0 9.0 0.00 0.12 0.00 76 1013.8
20260903081805 48 36 7.0 10.0 0.00 0.12 0.00 74 1013.7
20260903081306 48 75 5.0 9.0 0.00 0.12 0.00 74 1022.5
20260903080806 49 62 3.0 8.0 0.00 0.12 0.00 75 1014.0
20260903080305 48 88 3.0 9.0 0.00 0.12 0.00 74 1017.8
20260903075805 48 59 6.0 9.0 0.00 0.12 0.00 76 1013.8
20260903074805 48 66 5.0 7.0 0.00 0.12 0.00 75 1013.8
20260903074306 48 29 2.0 6.0 0.00 0.12 0.00 73 1017.0
20260903073305 48 62 4.0 8.0 0.00 0.12 0.00 82 1013.8
20260903072805 48 76 4.0 10.0 0.00 0.12 0.00 73 1013.8
20260903071806 49 88 2.0 6.0 0.00 0.12 0.00 72 1013.9
20260903070805 49 56 3.0 7.0 0.00 0.12 0.00 76 1017.7
20260903070305 49 47 5.0 6.0 0.00 0.12 0.00 73 1013.8
20260903065805 49 69 3.0 7.0 0.00 0.12 0.00 79 1019.6
20260903065306 50 64 5.0 7.0 0.00 0.12 0.00 72 1014.0
20260903064805 51 51 3.0 7.0 0.00 0.12 0.00 69 1014.0
20260903063806 50 65 5.0 8.0 0.00 0.12 0.00 68 1014.0
20260903063306 51 56 6.0 14.0 0.00 0.12 0.00 68 1013.9
20260903062306 51 64 6.0 10.0 0.00 0.12 0.00 80 1021.6
20260903061306 51 28 6.0 12.0 0.00 0.12 0.00 66 1013.9
20260903060805 51 58 5.0 7.0 0.00 0.12 0.00 69 1013.9
20260903060305 51 48 5.0 9.0 0.00 0.12 0.00 68 1013.9
20260903055806 52 80 5.0 9.0 0.00 0.12 0.00 66 1014.0
20260903054805 52 59 5.0 13.0 0.00 0.12 0.00 65 1013.9
20260903054305 51 67 9.0 13.0 0.00 0.12 0.00 67 1013.9
20260903053805 51 100 3.0 5.0 0.00 0.12 0.00 67 1013.9
20260903053305 51 29 2.0 6.0 0.00 0.12 0.00 68 1013.8
20260903052805 51 89 4.0 9.0 0.00 0.12 0.00 67 1013.8
20260903052307 51 77 6.0 9.0 0.00 0.12 0.00 66 1014.0
20260903051805 51 86 3.0 12.0 0.00 0.12 0.00 66 1013.9
20260903050805 51 82 7.0 12.0 0.00 0.12 0.00 66 1013.6
20260903045806 51 80 9.0 13.0 0.00 0.12 0.12 66 1013.8
20260903045306 52 74 5.0 7.0 0.00 0.12 0.12 67 1014.0
20260903044805 53 80 5.0 7.0 0.00 0.12 0.12 79 1022.3
20260903044305 53 101 3.0 5.0 0.00 0.12 0.12 65 1013.9
20260903043805 54 62 3.0 5.0 0.00 0.12 0.12 78 1022.0
20260903043305 53 81 3.0 8.0 0.00 0.12 0.12 65 1014.0
20260903042306 55 75 2.0 7.0 0.00 0.12 0.12 64 1013.9
20260903041805 54 60 5.0 7.0 0.00 0.12 0.12 64 1013.8
20260903041305 54 46 4.0 8.0 0.00 0.12 0.12 64 1013.9
20260903040307 55 261 0.0 3.0 0.00 0.12 0.12 64 1013.9
20260903035805 56 178 2.0 6.0 0.00 0.12 0.12 63 1013.9
20260903035306 55 87 3.0 6.0 0.00 0.12 0.12 62 1013.7
20260903034805 56 79 3.0 6.0 0.00 0.12 0.12 61 1014.2
20260903034305 55 67 4.0 9.0 0.00 0.12 0.12 61 1013.7
20260903033804 56 74 6.0 9.0 0.00 0.12 0.12 61 1013.7
20260903033305 56 61 5.0 10.0 0.00 0.12 0.12 67 1017.8
20260903032805 57 48 3.0 6.0 0.00 0.12 0.12 60 1013.9
20260903032306 56 114 1.0 7.0 0.00 0.12 0.12 66 1017.3
20260903031305 58 64 5.0 8.0 0.00 0.12 0.12 69 1019.2
20260903030806 57 63 7.0 9.0 0.00 0.12 0.12 58 1013.7
20260903030305 58 74 3.0 8.0 0.00 0.12 0.12 58 1013.4
20260903025306 59 63 5.0 9.0 0.05 0.12 0.12 56 1013.5
20260903024305 58 67 6.0 10.0 0.05 0.12 0.12 57 1013.4
20260903023804 58 74 4.0 8.0 0.05 0.12 0.12 56 1013.2
20260903023305 59 73 3.0 7.0 0.05 0.12 0.12 56 1013.2
20260903022306 60 172 1.0 5.0 0.05 0.12 0.12 56 1013.1
20260903021305 61 334 1.0 3.0 0.05 0.12 0.12 53 1013.1
20260903020805 61 125 2.0 5.0 0.05 0.12 0.12 52 1012.9
20260903020304 61 63 1.0 6.0 0.05 0.12 0.12 52 1013.1
20260903015805 62 150 2.0 6.0 0.03 0.07 0.07 51 1012.9
20260903015306 62 101 2.0 5.0 0.03 0.07 0.07 47 1013.0
20260903014805 63 192 0.0 3.0 0.03 0.07 0.07 47 1013.1
20260903014305 63 75 2.0 6.0 0.03 0.07 0.07 45 1013.0
20260903013805 64 74 3.0 6.0 0.03 0.07 0.07 67 1013.1
20260903013305 64 85 3.0 6.0 0.03 0.07 0.07 43 1020.8
20260903012805 64 235 2.0 6.0 0.06 0.07 0.07 67 1013.1
20260903012306 65 86 2.0 5.0 0.06 0.07 0.07 42 1021.7
20260903011806 65 285 1.0 3.0 0.06 0.07 0.07 55 1013.2
20260903011306 65 138 2.0 8.0 0.06 0.07 0.07 41 1021.1
20260903010805 66 162 3.0 8.0 0.06 0.07 0.07 52 1013.3
20260903010305 65 184 2.0 9.0 0.06 0.07 0.07 40 1020.5
20260903005805 68 163 5.0 12.0 0.03 0.04 0.04 40 1013.1
20260903005306 67 160 3.0 16.0 0.03 0.04 0.04 41 1013.1
20260903004805 68 244 6.0 16.0 0.03 0.04 0.04 41 1013.2
20260903004306 66 195 3.0 13.0 0.03 0.04 0.04 44 1013.3
20260903003805 67 101 4.0 8.0 0.03 0.04 0.04 45 1013.3
20260903003305 65 183 1.0 6.0 0.03 0.04 0.04 49 1013.3
20260903002805 66 223 1.0 6.0 0.00 0.01 0.01 50 1013.2
20260903001805 66 161 4.0 6.0 0.00 0.01 0.01 51 1013.4
20260902235805 66 148 2.0 3.0 0.00 0.01 0.01 49 1013.1
20260902235306 67 137 2.0 5.0 0.00 0.01 0.01 49 1021.3
20260902234805 66 181 5.0 7.0 0.00 0.01 0.01 49 1013.2
20260902234305 67 171 3.0 8.0 0.00 0.01 0.01 49 1016.2
20260902233304 67 142 2.0 5.0 0.00 0.01 0.01 36 1013.2
20260902232306 68 213 2.0 6.0 0.00 0.01 0.01 41 1013.4
20260902231805 70 55 1.0 6.0 0.00 0.01 0.01 43 1013.2
20260902231305 68 31 5.0 6.0 0.00 0.01 0.01 47 1013.1
20260902230306 68 169 1.0 5.0 0.00 0.01 0.01 41 1018.6
20260902225805 66 203 2.0 5.0 0.00 0.01 0.01 48 1013.1
20260902223307 67 56 3.0 7.0 0.00 0.01 0.01 46 1017.4
20260902222805 65 198 3.0 7.0 0.00 0.01 0.01 49 1013.7
20260902222306 66 55 1.0 6.0 0.00 0.01 0.01 47 1013.7
20260902221805 67 151 3.0 8.0 0.00 0.01 0.01 47 1013.9
20260902221305 68 210 2.0 7.0 0.00 0.01 0.01 46 1013.8
20260902220804 67 145 5.0 7.0 0.00 0.01 0.01 47 1022.5
20260902220304 66 33 1.0 17.0 0.00 0.01 0.01 47 1014.0
20260902215805 65 185 9.0 17.0 0.01 0.01 0.01 49 1018.8
20260902215306 64 198 3.0 24.0 0.01 0.01 0.01 51 1014.3
20260902214805 64 45 5.0 21.0 0.01 0.01 0.01 53 1018.6
20260902214305 64 170 9.0 21.0 0.01 0.01 0.01 53 1014.5
20260902213804 65 221 6.0 26.0 0.01 0.01 0.01 52 1014.5
20260902213305 66 203 9.0 39.0 0.01 0.01 0.01 49 1014.2
20260902212804 69 209 4.0 8.0 0.01 0.01 0.01 38 1013.3
20260902212306 69 153 6.0 7.0 0.01 0.01 0.01 37 1013.2
20260902211305 70 22 2.0 10.0 0.01 0.01 0.01 35 1013.5
20260902210805 71 136 2.0 7.0 0.01 0.01 0.01 43 1013.3
20260902205807 79 203 5.0 14.0 0.00 0.00 0.00 37 1013.5
20260902205306 78 159 6.0 14.0 0.00 0.00 0.00 38 1016.6
20260902204805 79 157 7.0 14.0 0.00 0.00 0.00 37 1013.6
20260902203805 79 158 5.0 9.0 0.00 0.00 0.00 37 1013.2
20260902203305 79 244 1.0 5.0 0.00 0.00 0.00 34 1021.0
20260902202805 79 220 2.0 5.0 0.00 0.00 0.00 35 1013.2
20260902201805 79 189 4.0 9.0 0.00 0.00 0.00 34 1013.3
20260902201305 79 188 4.0 15.0 0.00 0.00 0.00 34 1013.3
20260902200804 77 164 6.0 10.0 0.00 0.00 0.00 32 1013.2
20260902200304 77 164 3.0 12.0 0.00 0.00 0.00 33 1013.3
20260902195804 75 173 4.0 9.0 0.00 0.00 0.00 35 1013.5
20260902195306 75 181 3.0 10.0 0.00 0.00 0.00 35 1013.8
20260902194804 75 208 3.0 6.0 0.00 0.00 0.00 35 1013.5
20260902194304 75 254 2.0 6.0 0.00 0.00 0.00 36 1013.7
20260902193805 75 39 1.0 12.0 0.00 0.00 0.00 35 1022.2
20260902193304 70 169 4.0 13.0 0.00 0.00 0.00 36 1013.4
20260902192804 75 154 5.0 12.0 0.00 0.00 0.00 35 1013.5
20260902191804 75 180 3.0 10.0 0.00 0.00 0.00 36 1013.8
20260902190804 75 196 3.0 10.0 0.00 0.00 0.00 33 1013.7
20260902190305 75 250 4.0 15.0 0.00 0.00 0.00 34 1014.0
20260902185805 75 178 8.0 16.0 0.00 0.01 0.00 33 1014.0
20260902185307 75 154 9.0 16.0 0.00 0.01 0.00 35 1023.5